SCP
-0 -0 0 0 -0 0 0 0 0 0 0 0 0 0 0 0 0 0 0 0 0 0 0 0 0 0 0 0 0 0 0 0 0 0 0 0 0 0 0 0 0 0 0 0 0 0 0 0 0
-0 -0 0 0 -0 0 0 0 0 0 0 0 0 0 0 0 0 0 0 0 0 0 0 0 0 0 0 0 0 0 0 0 0 0 0 0 0 0 0 0 0 0 0 0 0 0 0 0 0
-0 0 0 0 0 0 0 0 0 0 0 0 0 0 0 0 0 0 0 0 0 0 0 0 0 0 0 0 0 0 0 0 0 0 0 0 0 1 1 0 0 1 0 0 0 0 0 0 0
-0 0 0 0 0 0 0 0 0 0 0 -0 -0 -0 0 0 0 0 0 0 0 0 0 0 0 0 0 0 0 0 0 0 0 0 0 0 0 0 0 0 1 1 1 1 1 1 0 0 0
0 0 -0 -0 -0 -0 0 -0 0 -0 0 -0 0 0 0 0 0 0 0 0 0 0 0 0 0 0 0 0 0 0 0 0 0 0 0 0 0 0 0 0 0 0 0 1 1 1 1 1 1
0 0 0 0 -0 -0 -0 -0 -0 -0 0 0 0 0 0 0 0 0 0 -0 0 0 0 0 0 0 0 0 0 0 0 0 0 0 0 0 0 0 0 0 0 0 0 0 0 0 0 0 0
-0 0 0 -0 0 0 0 -0 0 0 0 0 0 0 0 0 0 0 -0 0 0 0 0 0 0 0 0 0 0 0 0 0 0 0 0 0 0 0 0 0 0 0 0 0 0 0 0 0 0
0 0 0 0 0 0 0 -0 0 0 0 0 0 0 0 0 0 0 0 0 0 0 0 0 0 0 0 0 0 0 0 0 0 0 0 0 0 0 0 0 0 0 0 0 0 0 0 0 0
0 -0 -0 -0 0 0 0 0 0 0 0 0 0 0 0 0 0 0 0 0 0 0 0 0 0 0 0 0 0 0 -0 -0 0 0 0 0 0 0 0 0 0 0 0 0 0 0 0 0 0
0 0 0 0 0 0 0 0 0 0 0 0 0 0 0 0 0 0 0 0 0 0 0 0 -0 -0 -0 -0 0 0 0 0 -0 -0 -0 -0 0 0 0 0 0 0 0 0 0 0 0 0 0
-0 0 0 0 0 0 0 0 0 0 0 0 0 0 0 0 0 0 0 0 0 0 0 0 0 0 0 0 0 0 0 0 0 0 0 0 0 0 0 0 0 0 0 0 0 0 0 0 0
0 0 0 0 0 0 0 0 0 0 0 0 0 0 0 0 0 0 0 0 0 0 0 0 0 0 0 0 0 0 0 0 0 0 0 0 0 0 0 0 0 0 0 0 0 0 0 0 0
-0 0 0 0 0 0 0 0 0 0 0 0 0 0 0 0 0 0 0 0 -0 -0 -0 -0 0 0 0 0 0 0 0 0 0 0 0 0 0 0 0 0 0 0 0 0 0 0 0 0 0
0 0 0 0 0 0 0 0 0 0 0 0 0 0 0 0 0 0 0 0 0 -0 -0 -0 -0 -0 0 -0 0 0 0 0 0 0 0 0 0 0 0 0 0 0 0 0 0 0 0 0 0
0 0 -0 0 0 0 0 0 0 0 0 0 0 0 0 0 0 0 0 0 0 0 0 0 0 0 0 0 0 0 0 0 0 0 0 0 0 -0 0 0 0 0 0 0 0 0 0 0 0
-0 0 0 0 0 0 0 0 0 0 0 0 0 0 0 0 0 0 0 0 0 0 0 0 0 0 0 0 0 0 0 0 0 0 0 0 0 0 -0 0 0 0 0 0 0 0 0 0 0
0 0 0 0 0 0 0 0 0 0 0 0 0 0 0 0 0 0 0 0 0 0 0 0 0 0 0 0 0 0 0 0 0 0 0 0 0 0 0 0 0 0 0 0 0 0 0 0 0
0 0 0 0 0 0 0 0 0 0 0 0 0 0 0 0 0 0 0 0 0 0 0 0 0 0 0 0 0 0 0 0 0 0 0 0 0 0 0 0 0 0 0 0 0 0 0 0 0
0 0 0 0 0 0 0 0 0 0 0 0 0 0 0 0 0 0 0 0 0 0 0 0 0 0 0 0 0 0 0 0 0 0 0 0 0 0 0 0 0 0 0 0 0 0 0 0 0
0 0 0 0 0 0 0 0 0 0 0 0 0 0 0 0 0 0 0 0 0 0 0 0 0 0 0 0 0 0 0 0 0 0 0 0 0 0 0 0 0 0 0 0 0 0 0 0 0
0 0 0 0 0 0 0 0 0 0 0 0 0 0 0 0 0 0 0 0 0 0 0 0 0 0 0 0 0 0 0 0 0 0 0 0 0 0 0 0 0 0 0 0 0 0 0 0 0
-0 0 0 0 0 0 0 0 0 0 0 0 0 0 0 0 0 0 0 0 0 0 0 0 0 0 0 0 0 0 0 0 0 0 0 0 0 0 0 0 0 0 0 0 0 0 0 0 0
0 0 0 0 0 0 0 0 0 0 0 0 0 0 0 0 0 0 0 0 0 0 0 0 0 0 0 0 0 0 0 0 0 0 0 0 0 0 0 0 0 0 0 0 0 0 0 0 0
0 0 0 0 0 0 0 0 0 0 0 0 0 -0 -0 0 0 0 0 0 0 0 0 0 0 0 0 0 0 0 0 0 0 0 0 0 0 0 0 0 0 0 0 0 0 0 0 0 0
0 -0 -0 0 0 0 0 0 0 0 0 0 0 -0 -0 0 0 0 0 0 0 0 0 0 0 0 0 0 0 0 0 0 0 0 0 0 0 0 0 0 0 0 0 0 0 0 0 0 0
0 0 0 0 0 0 -0 0 0 0 0 0 0 -0 0 0 0 0 0 0 0 0 0 0 0 0 0 0 0 0 0 0 0 0 0 0 0 0 0 0 0 0 0 0 0 0 0 0 0
0 0 0 0 0 0 0 0 0 0 0 0 0 0 -0 0 0 0 0 0 0 0 0 0 0 0 0 0 0 0 0 0 0 0 0 0 0 0 0 0 0 0 0 0 0 0 0 0 0
0 0 0 0 0 0 0 0 0 0 0 0 0 0 0 0 0 0 0 0 0 0 0 0 0 0 0 0 0 0 0 0 0 0 0 0 0 0 0 0 0 0 0 0 0 0 0 0 0
0 0 0 0 0 0 0 0 0 0 0 0 0 -0 0 0 0 0 0 0 0 0 0 0 0 0 0 0 0 0 0 0 0 0 0 0 0 0 0 0 0 0 0 0 0 0 0 0 0
0 0 0 0 0 0 0 0 0 -0 0 -0 0 -0 0 0 0 0 0 0 0 0 0 0 0 0 0 0 0 0 0 0 0 0 0 0 0 0 0 0 0 0 0 -0 0 -0 0 0 0
Wind_Speed_500mb
13 14 17 10 4 4 11 7 13 21 8 27 38 24 34 37 11 7 15 31 27 18 26 22 17 17 14 11 10 8 8 9 12 16 18 15 14 15 18 19 18 17 16 15 16 16 14 12 11
12 11 12 9 5 1 7 18 20 19 23 20 40 36 38 14 27 8 16 33 28 26 21 24 19 19 17 16 19 18 15 14 8 9 12 13 16 17 17 18 20 20 20 20 21 20 19 18 16
12 12 7 6 4 12 8 17 12 16 29 34 17 38 15 12 18 12 27 29 31 28 33 37 35 24 24 23 22 21 20 20 18 17 15 11 7 9 12 17 19 20 22 24 24 24 23 22 22
8 7 14 3 17 19 25 16 14 22 33 48 31 27 24 27 11 24 28 33 36 37 37 34 45 46 35 30 29 26 24 22 19 16 17 22 21 17 14 11 8 22 26 27 27 27 25 25 26
16 11 7 13 18 20 18 39 30 30 20 52 22 23 25 28 30 31 38 40 45 46 45 49 44 45 44 43 39 35 31 31 29 26 24 22 21 23 27 27 19 23 22 20 23 20 24 29 29
10 10 9 10 21 24 24 54 51 61 45 62 43 31 22 19 26 36 43 42 44 46 49 46 45 44 45 42 46 43 40 37 34 32 29 28 28 26 25 25 22 26 26 26 28 33 36 30 28
7 6 5 17 16 22 25 44 50 52 51 57 28 22 21 24 25 30 34 37 39 43 41 47 40 40 40 39 41 45 42 42 40 38 34 30 27 31 33 29 28 27 27 27 29 32 33 39 48
9 5 5 13 4 17 36 48 48 52 49 32 22 19 17 21 24 24 23 31 36 40 38 39 42 39 43 37 47 47 48 47 42 43 44 39 32 27 36 37 33 32 32 28 25 26 32 34 33
16 6 15 20 23 9 43 40 54 54 56 66 59 47 37 31 28 31 35 37 40 44 48 48 50 54 57 60 45 59 58 59 65 64 62 62 55 50 47 47 45 40 37 35 33 28 26 26 30
14 10 13 25 24 24 46 54 36 31 49 48 45 39 35 34 34 37 41 47 50 51 53 50 52 52 55 51 51 53 43 49 53 52 55 58 65 58 55 51 50 49 45 42 35 34 30 27 29
21 9 18 27 38 42 43 60 48 16 27 39 38 37 36 38 40 44 46 50 54 53 53 53 51 54 53 56 54 59 54 50 45 45 50 53 59 59 49 39 45 46 49 47 42 40 35 32 35
12 36 25 25 38 32 36 35 50 49 32 28 29 30 34 40 46 49 51 52 56 57 57 57 57 56 58 54 58 58 58 61 59 59 52 46 56 58 55 49 40 43 44 43 43 42 42 42 39
34 32 35 40 51 54 53 48 34 34 25 22 24 32 39 43 48 49 51 53 57 61 63 63 63 63 60 67 66 61 63 62 66 64 55 61 53 51 56 55 53 41 39 38 34 38 41 39 42
31 37 33 21 29 31 44 32 24 25 20 26 34 38 42 47 52 53 55 56 59 63 64 65 63 63 65 68 64 66 66 66 60 63 60 57 61 58 54 51 46 42 41 41 41 40 40 43 34
43 21 18 14 29 16 54 31 20 19 19 28 35 41 45 48 53 56 60 64 66 70 71 72 72 72 72 70 67 69 63 60 70 59 60 56 53 60 62 59 57 60 49 42 44 45 44 38 39
14 16 12 10 6 16 16 12 17 18 26 32 38 43 48 53 58 61 64 67 70 73 75 76 79 80 78 78 77 74 76 73 68 65 61 59 59 56 62 62 54 49 59 56 48 49 52 51 47
14 10 17 13 11 6 15 16 15 21 26 33 37 44 51 59 59 66 67 71 73 77 76 84 80 81 82 81 81 82 78 77 71 69 67 62 61 61 60 58 62 58 49 51 53 49 41 44 44
17 11 17 17 9 13 30 19 16 14 27 30 37 48 58 59 64 72 73 76 78 77 86 81 82 86 83 80 78 77 78 75 73 69 75 75 68 65 68 59 58 58 61 54 53 53 56 63 59
19 16 19 26 9 7 20 17 12 3 25 31 44 57 58 60 68 71 77 81 82 87 83 92 89 85 86 84 81 78 79 81 81 74 71 73 76 69 69 75 66 51 58 62 54 56 56 55 53
12 17 16 12 14 7 18 17 10 6 17 37 50 56 63 68 75 77 81 85 89 96 93 79 93 83 83 79 81 73 76 80 81 82 80 79 76 72 69 64 67 70 64 59 65 62 62 57 54
13 15 23 18 19 15 10 12 11 10 11 44 49 57 64 71 77 83 89 95 95 95 97 91 85 90 74 83 75 84 89 77 82 77 73 73 71 68 68 72 69 65 56 58 55 57 56 59 58
9 29 29 21 10 2 3 2 8 11 18 39 53 65 67 73 80 85 94 92 103 105 85 98 90 83 82 74 77 90 84 84 78 81 77 77 73 76 78 81 78 79 73 67 61 57 65 65 64
12 45 37 26 9 5 5 5 6 21 27 36 56 66 71 79 81 92 85 105 99 84 110 87 97 94 96 93 91 88 88 84 83 80 77 74 79 77 79 77 78 76 72 66 64 64 64 63 64
38 39 9 7 5 5 9 4 11 13 28 35 56 64 76 81 92 85 105 101 91 106 94 106 102 103 97 92 86 82 80 77 76 75 77 76 73 72 75 76 75 74 70 69 71 69 67 62 63
34 29 8 7 9 5 24 14 7 16 23 35 54 71 82 83 84 103 101 101 105 107 111 116 109 104 93 82 81 78 77 76 76 69 63 68 71 70 68 61 64 68 70 72 68 71 69 60 63
15 17 8 9 9 14 30 8 9 20 42 53 63 72 79 87 101 88 99 105 112 112 107 112 110 106 99 87 80 77 74 78 78 75 70 62 63 69 71 65 63 60 61 62 64 56 57 69 68
13 11 3 9 15 9 6 9 12 39 46 55 67 78 83 92 88 103 102 101 113 100 109 110 106 104 98 92 87 83 82 82 82 74 70 68 59 55 58 59 63 65 52 53 55 56 55 54 52
12 11 6 7 11 11 13 12 12 37 38 48 69 80 87 102 96 104 96 104 106 104 112 105 98 100 99 95 92 91 89 84 71 67 74 74 60 45 44 47 48 49 52 59 54 57 61 54 59
10 9 9 3 4 4 9 4 24 29 37 46 72 78 86 78 100 96 102 105 103 114 114 108 109 109 108 104 101 96 87 76 68 68 75 78 66 42 27 34 34 37 44 50 40 47 51 56 55
15 11 12 7 12 7 5 9 37 54 56 67 73 80 86 89 96 96 103 102 109 116 116 113 110 112 109 101 94 94 87 81 73 67 70 75 42 16 10 20 23 27 29 36 41 44 50 55 61
Wind_Direction_500mb
327 8 320 322 321 188 28 105 40 36 57 38 51 66 97 52 21 50 300 9 40 26 40 27 31 34 31 27 21 19 19 1 339 321 304 298 298 297 287 285 281 274 273 268 262 269 276 274 264
348 41 322 283 243 2 55 28 49 56 26 7 65 93 38 74 41 40 51 19 30 32 23 20 358 350 344 340 344 332 318 305 305 2 4 319 294 279 275 278 277 274 275 270 267 265 262 274 270
358 342 279 212 23 25 63 38 58 78 62 17 116 59 64 11 8 33 21 23 26 25 28 22 21 5 1 358 354 350 343 339 329 312 298 311 326 314 300 277 267 265 268 268 265 263 264 264 267
353 271 268 213 68 48 25 39 3 21 57 33 108 84 79 31 40 36 37 32 32 29 23 21 21 19 8 2 357 352 350 350 346 338 318 302 295 282 269 266 318 263 259 267 266 263 262 262 261
316 279 265 81 65 60 42 18 32 54 41 13 53 64 74 35 33 43 32 26 21 19 17 16 15 12 11 4 4 360 356 353 350 348 343 336 326 308 306 298 271 257 242 241 250 262 274 264 261
289 240 294 108 84 43 39 41 21 41 27 19 26 79 64 36 33 34 32 26 23 19 15 10 11 6 6 5 360 359 355 352 348 346 343 339 332 325 316 306 300 299 299 289 278 261 258 265 277
259 281 83 121 130 67 37 48 31 51 30 28 29 76 79 36 22 21 28 23 13 12 13 4 9 5 358 8 350 346 347 344 340 339 336 338 344 332 316 305 303 296 289 284 280 278 274 265 257
287 285 84 4 108 51 34 69 64 63 39 43 48 48 46 20 32 27 8 6 4 359 358 358 355 352 346 350 339 336 335 332 329 329 326 324 325 313 309 309 304 298 293 287 282 276 274 278 274
302 298 59 17 27 79 23 87 80 69 72 62 52 50 41 26 20 9 7 360 358 356 352 346 341 333 333 330 323 321 325 322 320 317 315 312 312 312 310 308 301 294 290 287 284 279 277 275 271
357 43 48 35 100 86 56 40 68 73 51 45 49 41 31 25 15 6 360 356 353 348 344 336 334 328 325 320 311 309 312 312 312 310 306 307 303 301 302 299 296 296 289 282 279 275 269 270 265
15 89 69 48 67 105 88 60 48 53 51 46 38 33 22 15 5 359 355 350 343 337 332 326 319 317 315 313 312 308 306 293 292 297 301 303 288 293 288 278 279 282 281 279 273 266 263 259 263
97 53 81 58 63 72 73 89 70 67 68 54 42 25 13 9 3 357 353 342 339 336 332 331 330 328 326 323 316 315 312 307 298 285 280 295 298 294 291 281 280 279 284 281 273 272 264 259 257
101 107 95 97 89 89 83 77 81 70 61 44 26 21 11 5 358 351 344 340 337 334 330 328 326 324 323 318 318 315 308 307 303 304 294 281 290 295 288 282 289 279 279 278 285 281 275 268 264
116 115 116 107 100 98 90 71 77 55 39 34 21 18 10 2 352 345 343 339 335 332 328 326 324 323 317 314 313 309 308 306 306 298 295 299 277 281 289 288 279 274 277 277 274 274 272 278 283
135 127 149 120 128 116 112 64 59 40 36 25 18 13 3 353 349 347 345 342 338 333 331 329 326 322 319 316 314 312 306 299 297 294 298 290 294 278 279 286 277 274 275 286 279 274 280 270 268
213 189 157 80 353 146 212 86 51 36 30 19 9 2 353 352 350 351 345 339 336 332 330 326 324 321 318 316 313 308 303 304 298 294 291 288 283 283 279 281 274 276 271 269 283 280 275 278 275
65 348 354 143 94 94 17 117 77 42 27 15 5 355 353 355 351 346 342 340 336 332 330 329 325 321 319 315 312 310 303 302 296 293 292 287 278 275 280 278 275 263 266 268 266 267 277 277 276
327 346 320 41 46 39 91 114 91 43 36 13 358 354 358 354 349 344 341 339 336 335 332 327 325 321 318 315 312 307 303 299 296 287 281 282 288 282 274 278 278 267 257 261 264 270 271 267 268
279 297 356 347 115 101 108 126 107 25 38 6 0 4 355 351 346 342 342 340 338 334 330 327 326 323 318 318 312 308 302 298 295 291 290 283 279 276 272 270 268 270 264 260 261 262 267 263 262
337 21 4 317 356 29 133 124 127 74 33 10 9 1 354 349 345 344 343 340 337 332 330 330 325 324 321 316 312 309 305 299 294 291 287 283 280 280 272 273 276 274 266 262 259 257 258 262 256
6 28 341 305 321 47 153 129 181 158 352 8 7 2 354 349 344 343 341 336 337 336 332 330 329 325 323 318 310 304 309 292 291 289 287 283 278 272 271 268 268 266 265 260 256 250 251 258 256
281 354 310 292 322 68 213 330 104 36 5 1 5 359 350 348 344 341 339 338 336 336 337 332 332 326 326 324 314 313 316 309 300 299 289 282 278 274 269 267 266 266 267 265 262 261 256 252 253
307 311 295 267 201 239 178 301 156 37 0 1 360 354 349 346 344 339 341 336 338 340 335 333 337 334 332 327 326 322 318 313 307 300 293 283 277 274 265 263 263 259 259 259 257 255 253 249 249
325 324 132 75 190 121 356 317 57 11 9 352 355 350 347 344 342 343 338 342 342 337 340 339 338 337 335 331 329 325 319 314 310 304 298 287 279 273 270 267 262 260 256 256 254 253 251 247 247
352 352 359 355 4 297 360 57 81 23 19 360 352 349 344 345 345 339 345 345 341 341 341 342 341 340 341 338 336 335 332 329 324 318 303 292 284 275 270 262 260 258 254 252 252 251 249 248 249
351 34 56 310 328 289 301 70 173 39 15 3 354 347 344 346 342 347 347 345 342 344 340 341 344 345 349 348 344 342 340 338 332 328 321 306 283 273 265 264 255 250 251 249 248 247 246 249 246
334 32 246 275 262 295 135 71 229 13 7 359 353 347 346 346 345 348 346 346 345 342 343 346 351 356 356 354 351 350 349 345 337 333 328 319 308 282 268 262 256 252 242 242 245 244 249 244 240
76 353 360 317 357 312 344 75 343 1 354 358 352 347 346 339 350 347 348 346 346 346 351 357 1 1 1 359 357 354 351 344 341 338 329 326 317 293 266 257 252 246 244 252 247 246 245 245 249
353 21 349 208 55 308 325 69 27 357 5 354 345 343 341 347 347 347 347 346 348 354 356 360 2 2 360 359 358 355 354 353 355 359 357 344 323 302 268 252 252 248 245 244 245 241 247 244 244
66 29 20 70 330 307 173 259 18 9 0 351 339 340 337 350 347 348 347 348 351 355 357 0 5 3 1 358 1 2 2 2 3 6 14 3 4 347 280 244 244 243 242 245 242 246 245 247 253
Wind_Speed_850mb
13 14 17 10 4 4 11 7 13 21 8 27 38 24 34 37 11 7 15 31 27 18 26 22 17 17 14 11 10 8 8 9 12 16 18 15 14 15 18 19 18 17 16 15 16 16 14 12 11
12 11 12 9 5 1 7 18 20 19 23 20 40 36 38 14 27 8 16 33 28 26 21 24 19 19 17 16 19 18 15 14 8 9 12 13 16 17 17 18 20 20 20 20 21 20 19 18 16
12 12 7 6 4 12 8 17 12 16 29 34 17 38 15 12 18 12 27 29 31 28 33 37 35 24 24 23 22 21 20 20 18 17 15 11 7 9 12 17 19 20 22 24 24 24 23 22 22
8 7 14 3 17 19 25 16 14 22 33 48 31 27 24 27 11 24 28 33 36 37 37 34 45 46 35 30 29 26 24 22 19 16 17 22 21 17 14 11 8 22 26 27 27 27 25 25 26
16 11 7 13 18 20 18 39 30 30 20 52 22 23 25 28 30 31 38 40 45 46 45 49 44 45 44 43 39 35 31 31 29 26 24 22 21 23 27 27 19 23 22 20 23 20 24 29 29
10 10 9 10 21 24 24 54 51 61 45 62 43 31 22 19 26 36 43 42 44 46 49 46 45 44 45 42 46 43 40 37 34 32 29 28 28 26 25 25 22 26 26 26 28 33 36 30 28
7 6 5 17 16 22 25 44 50 52 51 57 28 22 21 24 25 30 34 37 39 43 41 47 40 40 40 39 41 45 42 42 40 38 34 30 27 31 33 29 28 27 27 27 29 32 33 39 48
9 5 5 13 4 17 36 48 48 52 49 32 22 19 17 21 24 24 23 31 36 40 38 39 42 39 43 37 47 47 48 47 42 43 44 39 32 27 36 37 33 32 32 28 25 26 32 34 33
16 6 15 20 23 9 43 40 54 54 56 66 59 47 37 31 28 31 35 37 40 44 48 48 50 54 57 60 45 59 58 59 65 64 62 62 55 50 47 47 45 40 37 35 33 28 26 26 30
14 10 13 25 24 24 46 54 36 31 49 48 45 39 35 34 34 37 41 47 50 51 53 50 52 52 55 51 51 53 43 49 53 52 55 58 65 58 55 51 50 49 45 42 35 34 30 27 29
21 9 18 27 38 42 43 60 48 16 27 39 38 37 36 38 40 44 46 50 54 53 53 53 51 54 53 56 54 59 54 50 45 45 50 53 59 59 49 39 45 46 49 47 42 40 35 32 35
12 36 25 25 38 32 36 35 50 49 32 28 29 30 34 40 46 49 51 52 56 57 57 57 57 56 58 54 58 58 58 61 59 59 52 46 56 58 55 49 40 43 44 43 43 42 42 42 39
34 32 35 40 51 54 53 48 34 34 25 22 24 32 39 43 48 49 51 53 57 61 63 63 63 63 60 67 66 61 63 62 66 64 55 61 53 51 56 55 53 41 39 38 34 38 41 39 42
31 37 33 21 29 31 44 32 24 25 20 26 34 38 42 47 52 53 55 56 59 63 64 65 63 63 65 68 64 66 66 66 60 63 60 57 61 58 54 51 46 42 41 41 41 40 40 43 34
43 21 18 14 29 16 54 31 20 19 19 28 35 41 45 48 53 56 60 64 66 70 71 72 72 72 72 70 67 69 63 60 70 59 60 56 53 60 62 59 57 60 49 42 44 45 44 38 39
14 16 12 10 6 16 16 12 17 18 26 32 38 43 48 53 58 61 64 67 70 73 75 76 79 80 78 78 77 74 76 73 68 65 61 59 59 56 62 62 54 49 59 56 48 49 52 51 47
14 10 17 13 11 6 15 16 15 21 26 33 37 44 51 59 59 66 67 71 73 77 76 84 80 81 82 81 81 82 78 77 71 69 67 62 61 61 60 58 62 58 49 51 53 49 41 44 44
17 11 17 17 9 13 30 19 16 14 27 30 37 48 58 59 64 72 73 76 78 77 86 81 82 86 83 80 78 77 78 75 73 69 75 75 68 65 68 59 58 58 61 54 53 53 56 63 59
19 16 19 26 9 7 20 17 12 3 25 31 44 57 58 60 68 71 77 81 82 87 83 92 89 85 86 84 81 78 79 81 81 74 71 73 76 69 69 75 66 51 58 62 54 56 56 55 53
12 17 16 12 14 7 18 17 10 6 17 37 50 56 63 68 75 77 81 85 89 96 93 79 93 83 83 79 81 73 76 80 81 82 80 79 76 72 69 64 67 70 64 59 65 62 62 57 54
13 15 23 18 19 15 10 12 11 10 11 44 49 57 64 71 77 83 89 95 95 95 97 91 85 90 74 83 75 84 89 77 82 77 73 73 71 68 68 72 69 65 56 58 55 57 56 59 58
9 29 29 21 10 2 3 2 8 11 18 39 53 65 67 73 80 85 94 92 103 105 85 98 90 83 82 74 77 90 84 84 78 81 77 77 73 76 78 81 78 79 73 67 61 57 65 65 64
12 45 37 26 9 5 5 5 6 21 27 36 56 66 71 79 81 92 85 105 99 84 110 87 97 94 96 93 91 88 88 84 83 80 77 74 79 77 79 77 78 76 72 66 64 64 64 63 64
38 39 9 7 5 5 9 4 11 13 28 35 56 64 76 81 92 85 105 101 91 106 94 106 102 103 97 92 86 82 80 77 76 75 77 76 73 72 75 76 75 74 70 69 71 69 67 62 63
34 29 8 7 9 5 24 14 7 16 23 35 54 71 82 83 84 103 101 101 105 107 111 116 109 104 93 82 81 78 77 76 76 69 63 68 71 70 68 61 64 68 70 72 68 71 69 60 63
15 17 8 9 9 14 30 8 9 20 42 53 63 72 79 87 101 88 99 105 112 112 107 112 110 106 99 87 80 77 74 78 78 75 70 62 63 69 71 65 63 60 61 62 64 56 57 69 68
13 11 3 9 15 9 6 9 12 39 46 55 67 78 83 92 88 103 102 101 113 100 109 110 106 104 98 92 87 83 82 82 82 74 70 68 59 55 58 59 63 65 52 53 55 56 55 54 52
12 11 6 7 11 11 13 12 12 37 38 48 69 80 87 102 96 104 96 104 106 104 112 105 98 100 99 95 92 91 89 84 71 67 74 74 60 45 44 47 48 49 52 59 54 57 61 54 59
10 9 9 3 4 4 9 4 24 29 37 46 72 78 86 78 100 96 102 105 103 114 114 108 109 109 108 104 101 96 87 76 68 68 75 78 66 42 27 34 34 37 44 50 40 47 51 56 55
15 11 12 7 12 7 5 9 37 54 56 67 73 80 86 89 96 96 103 102 109 116 116 113 110 112 109 101 94 94 87 81 73 67 70 75 42 16 10 20 23 27 29 36 41 44 50 55 61
Wind_Direction_850mb
327 8 320 322 321 188 28 105 40 36 57 38 51 66 97 52 21 50 300 9 40 26 40 27 31 34 31 27 21 19 19 1 339 321 304 298 298 297 287 285 281 274 273 268 262 269 276 274 264
348 41 322 283 243 2 55 28 49 56 26 7 65 93 38 74 41 40 51 19 30 32 23 20 358 350 344 340 344 332 318 305 305 2 4 319 294 279 275 278 277 274 275 270 267 265 262 274 270
358 342 279 212 23 25 63 38 58 78 62 17 116 59 64 11 8 33 21 23 26 25 28 22 21 5 1 358 354 350 343 339 329 312 298 311 326 314 300 277 267 265 268 268 265 263 264 264 267
353 271 268 213 68 48 25 39 3 21 57 33 108 84 79 31 40 36 37 32 32 29 23 21 21 19 8 2 357 352 350 350 346 338 318 302 295 282 269 266 318 263 259 267 266 263 262 262 261
316 279 265 81 65 60 42 18 32 54 41 13 53 64 74 35 33 43 32 26 21 19 17 16 15 12 11 4 4 360 356 353 350 348 343 336 326 308 306 298 271 257 242 241 250 262 274 264 261
289 240 294 108 84 43 39 41 21 41 27 19 26 79 64 36 33 34 32 26 23 19 15 10 11 6 6 5 360 359 355 352 348 346 343 339 332 325 316 306 300 299 299 289 278 261 258 265 277
259 281 83 121 130 67 37 48 31 51 30 28 29 76 79 36 22 21 28 23 13 12 13 4 9 5 358 8 350 346 347 344 340 339 336 338 344 332 316 305 303 296 289 284 280 278 274 265 257
287 285 84 4 108 51 34 69 64 63 39 43 48 48 46 20 32 27 8 6 4 359 358 358 355 352 346 350 339 336 335 332 329 329 326 324 325 313 309 309 304 298 293 287 282 276 274 278 274
302 298 59 17 27 79 23 87 80 69 72 62 52 50 41 26 20 9 7 360 358 356 352 346 341 333 333 330 323 321 325 322 320 317 315 312 312 312 310 308 301 294 290 287 284 279 277 275 271
357 43 48 35 100 86 56 40 68 73 51 45 49 41 31 25 15 6 360 356 353 348 344 336 334 328 325 320 311 309 312 312 312 310 306 307 303 301 302 299 296 296 289 282 279 275 269 270 265
15 89 69 48 67 105 88 60 48 53 51 46 38 33 22 15 5 359 355 350 343 337 332 326 319 317 315 313 312 308 306 293 292 297 301 303 288 293 288 278 279 282 281 279 273 266 263 259 263
97 53 81 58 63 72 73 89 70 67 68 54 42 25 13 9 3 357 353 342 339 336 332 331 330 328 326 323 316 315 312 307 298 285 280 295 298 294 291 281 280 279 284 281 273 272 264 259 257
101 107 95 97 89 89 83 77 81 70 61 44 26 21 11 5 358 351 344 340 337 334 330 328 326 324 323 318 318 315 308 307 303 304 294 281 290 295 288 282 289 279 279 278 285 281 275 268 264
116 115 116 107 100 98 90 71 77 55 39 34 21 18 10 2 352 345 343 339 335 332 328 326 324 323 317 314 313 309 308 306 306 298 295 299 277 281 289 288 279 274 277 277 274 274 272 278 283
135 127 149 120 128 116 112 64 59 40 36 25 18 13 3 353 349 347 345 342 338 333 331 329 326 322 319 316 314 312 306 299 297 294 298 290 294 278 279 286 277 274 275 286 279 274 280 270 268
213 189 157 80 353 146 212 86 51 36 30 19 9 2 353 352 350 351 345 339 336 332 330 326 324 321 318 316 313 308 303 304 298 294 291 288 283 283 279 281 274 276 271 269 283 280 275 278 275
65 348 354 143 94 94 17 117 77 42 27 15 5 355 353 355 351 346 342 340 336 332 330 329 325 321 319 315 312 310 303 302 296 293 292 287 278 275 280 278 275 263 266 268 266 267 277 277 276
327 346 320 41 46 39 91 114 91 43 36 13 358 354 358 354 349 344 341 339 336 335 332 327 325 321 318 315 312 307 303 299 296 287 281 282 288 282 274 278 278 267 257 261 264 270 271 267 268
279 297 356 347 115 101 108 126 107 25 38 6 0 4 355 351 346 342 342 340 338 334 330 327 326 323 318 318 312 308 302 298 295 291 290 283 279 276 272 270 268 270 264 260 261 262 267 263 262
337 21 4 317 356 29 133 124 127 74 33 10 9 1 354 349 345 344 343 340 337 332 330 330 325 324 321 316 312 309 305 299 294 291 287 283 280 280 272 273 276 274 266 262 259 257 258 262 256
6 28 341 305 321 47 153 129 181 158 352 8 7 2 354 349 344 343 341 336 337 336 332 330 329 325 323 318 310 304 309 292 291 289 287 283 278 272 271 268 268 266 265 260 256 250 251 258 256
281 354 310 292 322 68 213 330 104 36 5 1 5 359 350 348 344 341 339 338 336 336 337 332 332 326 326 324 314 313 316 309 300 299 289 282 278 274 269 267 266 266 267 265 262 261 256 252 253
307 311 295 267 201 239 178 301 156 37 0 1 360 354 349 346 344 339 341 336 338 340 335 333 337 334 332 327 326 322 318 313 307 300 293 283 277 274 265 263 263 259 259 259 257 255 253 249 249
325 324 132 75 190 121 356 317 57 11 9 352 355 350 347 344 342 343 338 342 342 337 340 339 338 337 335 331 329 325 319 314 310 304 298 287 279 273 270 267 262 260 256 256 254 253 251 247 247
352 352 359 355 4 297 360 57 81 23 19 360 352 349 344 345 345 339 345 345 341 341 341 342 341 340 341 338 336 335 332 329 324 318 303 292 284 275 270 262 260 258 254 252 252 251 249 248 249
351 34 56 310 328 289 301 70 173 39 15 3 354 347 344 346 342 347 347 345 342 344 340 341 344 345 349 348 344 342 340 338 332 328 321 306 283 273 265 264 255 250 251 249 248 247 246 249 246
334 32 246 275 262 295 135 71 229 13 7 359 353 347 346 346 345 348 346 346 345 342 343 346 351 356 356 354 351 350 349 345 337 333 328 319 308 282 268 262 256 252 242 242 245 244 249 244 240
76 353 360 317 357 312 344 75 343 1 354 358 352 347 346 339 350 347 348 346 346 346 351 357 1 1 1 359 357 354 351 344 341 338 329 326 317 293 266 257 252 246 244 252 247 246 245 245 249
353 21 349 208 55 308 325 69 27 357 5 354 345 343 341 347 347 347 347 346 348 354 356 360 2 2 360 359 358 355 354 353 355 359 357 344 323 302 268 252 252 248 245 244 245 241 247 244 244
66 29 20 70 330 307 173 259 18 9 0 351 339 340 337 350 347 348 347 348 351 355 357 0 5 3 1 358 1 2 2 2 3 6 14 3 4 347 280 244 244 243 242 245 242 246 245 247 253